Location: ???????
(55.4362°N, 38.1183°E)
Time: 11:13:42
(UTC+00:00)

deb Delta 139 - Pass Details

Date: 28 January 2022
Orbit: 790 x 1093 km, 98.7° (Epoch: 23 May)

Event Time Altitude Azimuth Distance (km) Brightness Sun altitude
Rises 03:28:35 0° 17° (NNE) 3,653 ? -16.6°
Reaches altitude 10° 03:31:02 10° 22° (NNE) 2,745 ? -16.2°
Maximum altitude 03:37:11 58° 101° (E) 1,190 ? -15.4°
Drops below altitude 10° 03:43:40 10° 180° (S) 2,898 ? -14.5°
Sets 03:46:18 0° 184° (S) 3,871 ? -14.1°
